SCP
-0 0 0 0 0 -0 -0 -0 -0 -0 -0 -0 -0 -0 -0 -0 0 0 0 0 0 0 0 0 0 0 0 0 0 0 0 0 0 0 0 0 0 0 0 0 0 0 0 0 0 0 0
-0 0 0 -0 -0 -0 -0 -0 -0 -0 -0 -0 -0 0 0 -0 -0 0 0 0 0 0 0 0 0 0 0 0 0 0 0 0 0 0 0 0 0 0 0 0 0 0 0 0 0 0 0
-0 -0 -0 -0 -0 -0 -0 -0 -0 -0 -0 -0 -0 -0 -0 -0 -0 0 0 0 0 0 0 0 0 0 0 0 0 0 0 0 0 0 0 0 0 0 0 0 0 0 0 0 0 0 0
-0 -0 -0 -0 -0 -0 -0 -0 -0 -0 -0 -0 -0 -0 -0 -0 0 0 0 0 0 0 0 0 0 0 0 0 0 0 0 0 0 0 0 0 0 0 0 0 0 0 0 0 0 0 0
-0 -0 -0 -0 -0 -0 -0 -0 -0 -0 -0 -0 0 0 0 0 0 0 0 0 -0 0 0 0 0 0 0 0 0 0 0 0 0 0 0 0 0 0 0 0 0 0 0 0 0 0 0
0 0 -0 -0 -0 -0 -0 0 0 0 0 0 0 0 0 0 0 0 -0 0 0 0 0 0 0 0 0 0 0 0 0 0 0 0 0 0 0 0 0 0 0 0 0 0 0 0 0
0 0 0 -0 -0 -0 -0 -0 0 0 0 0 0 0 0 0 0 0 0 -0 0 0 0 0 0 0 0 0 0 0 0 0 0 0 0 0 0 0 0 0 0 0 0 0 0 0 0
0 0 0 0 0 0 0 0 0 0 0 0 0 0 0 0 0 -0 -0 -0 0 0 0 0 0 0 0 0 0 0 0 0 0 0 0 0 0 0 0 0 0 0 0 0 0 0 0
0 0 0 0 0 0 0 0 0 0 0 0 0 0 0 0 0 0 -0 0 0 0 0 0 0 0 0 0 0 0 0 0 0 0 0 0 0 -0 -0 -0 0 0 0 0 0 0 0
0 0 0 0 0 0 0 -0 -0 0 0 0 0 0 0 0 0 0 0 0 0 0 0 0 0 0 0 0 0 0 -0 0 0 0 0 0 0 0 0 0 0 0 0 0 0 0 0
0 0 0 0 0 0 0 0 0 0 0 0 0 0 0 0 0 0 0 0 0 0 0 0 0 0 0 0 0 0 0 0 0 0 0 0 0 0 0 0 0 0 0 0 0 0 0
0 0 0 0 0 0 0 0 0 0 0 0 0 0 0 0 0 0 0 0 0 0 0 0 0 0 -0 0 0 0 0 0 0 -0 0 0 0 0 0 0 0 0 0 0 0 0 0
0 0 0 0 0 0 0 0 0 0 0 0 0 0 0 0 0 0 0 0 0 0 0 0 0 0 0 0 0 0 0 0 0 0 0 0 0 0 0 0 0 0 -0 0 0 0 0
0 0 0 0 0 0 0 0 0 0 0 0 0 0 0 0 0 0 0 0 0 0 0 0 0 0 0 0 0 0 0 -0 0 0 0 0 0 0 0 0 0 0 0 0 0 0 0
0 0 0 0 0 0 0 0 0 0 0 0 0 0 0 0 0 0 0 0 0 0 0 0 0 0 0 0 0 0 0 0 0 -0 0 0 -0 0 0 0 0 0 0 0 0 0 0
0 0 0 0 0 0 0 0 0 0 0 0 0 0 0 0 0 0 0 0 0 0 0 0 0 0 0 0 0 0 0 0 0 0 0 -0 -0 0 0 0 0 0 0 0 0 0 0
0 0 0 0 0 0 0 0 0 0 0 0 0 0 0 0 0 0 0 0 0 0 0 0 0 0 -0 0 0 0 0 0 0 0 -0 0 0 0 0 -0 -0 0 0 0 -0 -0 0
0 0 0 0 0 0 0 0 0 0 0 0 0 0 0 0 0 0 0 0 0 0 0 0 0 0 -0 -0 0 -0 -0 0 -0 -0 -0 -0 -0 -0 0 0 -0 0 -0 0 0 -0 0
0 0 0 0 0 0 0 0 0 0 0 0 0 -0 0 0 0 0 0 0 0 0 0 0 0 0 -0 0 -0 -0 0 -0 0 0 0 0 -0 -0 0 -0 -0 -0 -0 0 0 -0 0
0 0 0 0 0 0 0 0 0 0 0 0 0 0 0 0 0 0 0 0 0 0 0 0 0 0 0 -0 0 -0 0 -0 0 0 0 -0 -0 -0 0 -0 0 0 0 0 0 0 0
0 0 0 0 0 0 0 0 0 0 0 0 0 0 0 0 0 0 -0 -0 0 0 0 0 0 0 0 -0 -0 -0 -0 -0 -0 -0 -0 -0 -0 0 0 0 0 0 0 0 0 0 0
0 0 0 0 0 0 0 0 0 0 0 0 0 0 0 0 0 0 0 0 0 0 0 0 0 -0 -0 -0 -0 -0 -0 -0 -0 0 0 -0 -0 -0 -0 0 0 0 0 0 0 0 -0
0 0 0 0 0 0 0 0 0 0 0 0 0 0 0 0 0 0 0 -0 0 0 0 -0 -0 -0 -0 -0 -0 -0 -0 -0 -0 -0 -0 -0 -0 -0 -0 0 0 -0 -0 -0 0 0 0
0 0 0 0 0 0 0 0 0 0 0 0 0 0 0 0 0 0 -0 -0 -0 0 -0 -0 -0 -0 -0 0 -0 -0 -0 -0 -0 -0 -0 -0 -0 -0 0 0 -0 0 -0 0 0 -0 0
0 0 0 0 0 0 0 0 0 0 0 0 0 0 0 0 0 0 -0 -0 0 -0 -0 -0 0 0 -0 -0 -0 0 0 -0 -0 -0 -0 0 -0 -0 -0 0 0 0 0 0 0 0 -0
0 0 0 0 0 0 0 0 0 0 0 0 0 0 0 0 0 -0 -0 0 -0 -0 -0 0 -0 0 0 0 0 0 0 0 0 -0 0 0 0 0 0 -0 0 0 0 -0 0 0 -0
0 0 0 0 0 0 0 0 0 0 0 0 0 0 0 0 0 0 -0 -0 0 -0 0 -0 -0 -0 0 -0 -0 0 0 0 0 -0 0 0 0 0 0 0 0 0 -0 0 0 0 0
0 0 0 0 0 0 0 0 0 0 0 0 0 0 0 0 0 -0 -0 -0 -0 -0 -0 -0 -0 0 -0 0 0 0 0 0 0 -0 -0 0 0 0 0 0 0 -0 0 0 0 0 0
0 0 0 0 0 0 0 0 0 0 0 0 0 0 0 0 0 -0 -0 -0 -0 -0 -0 0 0 0 0 0 0 0 0 0 -0 -0 -0 0 0 0 0 0 -0 0 0 -0 -0 0 0
Wind_Speed_500mb
46 44 44 44 43 43 43 44 46 47 48 49 51 53 54 53 54 54 52 53 54 59 55 60 66 65 46 19 42 38 39 37 31 19 24 31 44 51 49 49 57 59 56 71 72 68 69
46 44 43 43 43 43 44 45 46 47 48 48 50 50 52 52 49 51 53 54 53 51 54 56 51 43 23 29 16 25 18 19 21 29 33 37 43 50 52 49 56 59 60 63 66 71 68
46 43 42 41 40 40 41 43 46 49 51 53 56 59 58 56 61 59 56 58 57 54 42 39 42 32 33 72 24 23 29 26 25 32 42 39 40 48 48 48 65 62 59 57 56 69 59
45 43 41 41 41 42 45 49 53 56 58 59 60 61 61 63 64 62 61 54 52 51 49 40 23 17 30 24 22 37 41 46 36 35 41 40 41 48 55 59 58 47 54 52 57 55 58
47 48 48 47 45 45 47 50 54 57 59 62 64 67 68 70 70 65 59 50 46 40 43 31 4 18 26 21 28 31 31 38 36 39 35 32 36 45 44 40 40 47 46 57 50 53 58
48 50 49 49 49 48 49 52 54 57 61 65 68 70 71 69 71 68 60 44 36 32 22 11 19 20 38 29 11 14 18 25 31 26 37 36 26 33 37 33 41 46 51 54 56 46 55
47 49 51 53 54 53 54 56 58 60 63 66 69 71 74 71 69 55 54 44 29 13 13 33 44 43 52 25 17 22 21 22 30 40 36 43 30 43 48 48 55 52 50 56 55 52 57
46 49 51 55 60 63 62 60 61 62 62 64 68 72 73 71 63 33 34 23 25 32 55 50 89 91 91 70 74 63 34 43 33 40 40 36 48 48 43 49 52 53 53 57 53 53 47
48 49 52 57 60 62 66 67 67 67 67 68 70 72 73 69 47 25 31 23 35 36 28 63 66 54 54 42 53 51 46 49 48 41 44 46 51 49 51 47 49 51 51 49 52 51 56
49 51 52 53 56 60 66 67 71 71 71 70 70 72 79 69 19 33 17 30 31 32 14 38 13 5 11 11 26 34 38 41 41 49 48 43 48 53 51 44 51 47 47 52 52 46 39
53 49 49 51 55 61 67 68 71 70 72 75 73 70 72 43 40 20 31 37 34 20 15 9 15 4 16 24 32 19 35 31 41 42 41 41 56 42 43 51 48 44 38 44 50 46 46
54 50 50 51 55 60 68 71 72 74 73 78 76 73 73 38 33 32 41 36 25 11 18 21 39 40 32 46 30 39 30 37 53 52 46 54 63 48 48 45 49 43 33 57 46 36 37
55 54 50 53 56 61 70 75 75 77 79 81 86 76 47 32 13 32 38 35 16 20 32 44 58 47 42 46 48 52 52 54 43 45 47 45 56 53 49 57 53 37 20 24 27 30 34
54 55 54 55 58 64 74 77 80 81 81 84 90 76 32 18 13 32 37 24 23 24 35 54 53 61 56 57 55 45 35 31 40 56 14 30 40 58 46 40 45 45 39 22 23 29 40
52 55 57 57 61 69 77 77 78 78 81 88 86 54 26 20 11 34 28 18 23 36 47 49 60 46 54 60 61 55 55 49 44 38 12 19 36 31 32 36 35 53 16 21 30 44 30
55 58 60 63 67 72 75 77 78 79 83 78 77 50 18 5 22 33 16 28 35 45 48 42 49 48 53 55 53 55 48 40 37 34 22 14 15 25 40 19 44 40 10 28 25 39 18
56 57 63 64 68 71 74 77 78 73 77 74 45 30 4 14 34 24 19 29 44 54 41 36 41 44 47 41 36 44 53 50 27 21 9 9 11 13 9 11 40 35 21 6 11 34 32
54 58 62 64 67 69 73 75 70 68 72 65 26 16 35 26 30 12 17 36 44 37 32 35 30 35 39 39 29 33 40 44 17 12 20 7 11 16 32 24 42 23 39 39 9 27 33
56 61 64 65 65 65 70 70 66 56 54 58 35 40 10 39 18 21 36 37 37 29 31 30 33 39 24 18 18 14 11 28 37 17 3 4 6 13 21 21 6 8 26 30 23 9 41
59 59 62 67 62 62 65 62 57 49 42 44 20 16 38 39 30 37 36 39 36 33 34 46 38 36 9 40 35 31 19 11 31 13 14 12 6 13 20 27 20 16 39 25 27 18 30
56 61 67 63 52 54 58 53 49 47 38 26 13 18 36 18 31 34 38 40 33 38 36 48 33 30 45 31 46 38 48 44 39 19 8 1 7 24 34 38 41 43 45 41 33 32 30
57 60 68 56 53 50 50 46 47 44 39 19 29 41 32 53 32 38 39 29 43 42 43 37 32 51 43 34 37 48 42 37 37 32 23 4 7 28 37 36 37 48 47 43 38 35 29
57 55 60 58 54 50 47 41 43 40 33 27 29 33 32 29 31 31 31 42 35 41 21 55 42 42 43 37 56 67 66 58 47 42 35 28 17 12 15 20 41 21 49 39 37 40 36
52 50 50 52 57 50 42 38 38 33 28 24 29 32 22 21 27 30 43 40 40 40 39 47 53 16 27 71 71 63 62 54 45 41 34 31 17 6 15 21 10 22 26 34 34 37 25
50 49 48 50 54 49 39 36 33 32 27 25 26 28 22 16 41 39 46 45 49 54 42 50 38 50 59 56 18 21 11 20 14 23 26 20 11 5 7 13 15 30 29 15 13 28 29
50 47 47 46 51 47 37 33 33 32 24 26 23 26 32 18 15 57 55 40 34 33 32 37 61 44 42 8 5 8 7 6 6 5 7 12 13 7 7 11 13 16 35 47 23 13 53
47 46 44 44 48 42 36 35 33 32 30 24 32 25 37 30 53 38 44 38 43 26 20 47 43 46 23 7 6 6 8 11 8 9 8 5 5 7 10 9 6 28 49 46 7 6 21
44 44 42 42 45 38 36 32 36 32 28 31 36 28 35 41 64 67 45 48 51 57 21 47 25 7 9 10 7 8 6 5 7 8 5 5 5 2 5 5 5 46 30 14 18 28 18
44 42 40 43 39 36 34 36 34 29 32 30 40 27 34 44 65 77 74 67 69 65 60 23 14 22 7 5 5 9 8 7 11 5 7 3 7 4 9 6 21 28 25 38 38 39 26
Wind_Direction_500mb
29 28 25 22 20 17 14 10 5 3 359 354 350 347 343 340 336 331 326 320 316 311 309 308 308 309 320 261 258 296 271 282 259 251 227 229 228 233 239 245 241 238 243 242 241 252 258
29 27 23 20 17 14 9 5 2 359 356 352 347 344 341 339 335 330 324 319 311 303 302 303 305 305 293 261 279 254 265 257 238 225 230 230 232 236 255 246 248 253 252 257 250 246 247
29 26 23 19 15 11 7 1 358 355 353 350 347 346 344 342 338 339 334 328 318 309 302 292 292 290 259 254 232 241 254 247 238 238 239 238 241 247 253 255 259 253 254 262 248 241 246
26 24 21 17 13 9 5 1 358 355 353 351 348 345 346 344 343 340 336 330 326 318 310 304 286 238 255 261 271 248 253 252 250 238 238 242 247 251 252 261 266 261 252 245 241 250 243
21 19 18 15 12 8 4 1 358 355 352 349 348 346 345 343 339 336 332 328 319 315 307 313 249 203 265 285 253 258 244 244 246 245 245 242 244 253 254 247 253 246 249 239 251 246 238
17 16 14 12 10 7 3 0 357 354 350 348 346 343 341 340 335 334 334 333 311 306 298 292 261 245 246 255 280 230 239 237 241 242 232 232 239 239 234 237 232 237 242 242 254 244 231
13 13 11 9 7 4 1 359 356 353 350 347 344 341 339 339 334 337 345 3 343 289 223 246 266 237 265 237 241 242 242 236 243 240 230 221 231 234 228 226 246 256 253 253 251 231 240
10 9 7 6 4 3 3 359 355 352 349 346 343 341 339 337 335 338 346 335 337 307 300 270 261 259 264 266 271 259 242 232 231 238 237 233 233 242 246 251 245 237 249 263 268 271 271
5 4 4 4 3 2 0 358 355 351 348 345 343 340 337 333 333 343 326 312 325 323 292 295 268 262 241 243 248 261 241 236 239 241 237 242 240 239 236 244 250 251 248 247 250 259 268
0 1 2 1 359 358 357 356 353 350 346 342 341 340 333 334 339 320 324 327 327 322 283 276 154 190 164 227 241 246 250 229 232 239 257 248 242 244 254 247 237 240 250 256 253 258 251
358 356 356 355 354 355 353 349 347 345 344 340 338 339 332 333 322 332 324 325 321 316 293 26 91 146 254 212 310 263 234 223 234 249 261 263 288 297 265 243 269 289 267 241 262 245 257
353 351 350 351 350 348 347 343 341 339 340 337 332 334 325 334 300 306 319 316 306 250 252 12 11 349 318 292 304 298 227 232 244 271 262 261 275 267 259 258 273 277 288 300 233 249 244
349 348 347 347 346 343 341 340 338 338 336 337 334 334 318 312 293 328 321 317 275 242 312 344 343 333 314 304 309 302 292 288 277 259 243 280 271 251 252 259 258 242 238 244 232 226 241
347 347 345 343 341 338 338 338 338 336 336 339 337 337 331 300 300 322 322 289 260 313 319 340 336 327 312 313 303 304 304 291 311 306 228 222 259 250 258 234 248 269 246 243 211 225 237
346 345 341 338 335 336 337 337 336 338 338 342 342 344 316 264 278 330 310 274 297 350 341 333 323 314 311 311 307 302 286 294 288 290 235 295 277 327 311 317 242 233 206 249 271 240 238
342 342 341 337 334 334 335 335 337 342 343 346 338 336 306 268 309 314 297 269 308 348 332 324 314 318 313 312 308 304 293 298 313 353 23 21 298 286 262 287 263 251 304 208 222 251 198
333 337 337 335 335 334 335 338 340 343 342 346 338 317 57 335 317 274 268 309 332 324 324 328 321 320 322 327 311 299 293 288 288 308 328 341 258 289 53 249 245 242 211 150 295 252 232
332 332 333 333 334 334 336 340 344 346 343 352 325 295 312 331 304 262 322 333 318 320 334 333 339 319 318 329 313 302 277 281 9 335 328 129 278 276 276 193 238 308 218 207 184 247 248
327 329 330 330 332 335 336 338 342 351 349 342 315 300 28 338 305 336 333 312 314 338 321 336 330 312 19 306 304 329 307 307 326 298 325 329 252 316 313 175 151 321 244 245 220 242 266
323 325 328 329 329 335 337 338 345 353 348 340 304 315 332 320 324 348 316 310 316 338 336 332 327 326 292 318 316 307 336 256 232 280 177 274 253 271 282 306 287 306 297 295 221 214 241
320 325 326 327 327 336 337 340 344 349 351 340 291 327 334 309 327 311 296 298 319 336 338 333 317 325 323 315 312 312 322 327 328 101 172 157 290 302 296 297 290 278 276 279 270 199 241
320 323 325 325 328 331 335 338 341 347 355 328 319 343 323 300 313 294 295 352 341 337 337 316 326 313 310 296 301 309 315 309 311 298 285 211 289 311 297 281 280 261 258 253 257 263 204
319 320 326 328 331 328 330 334 338 344 355 335 331 320 317 308 311 313 346 332 336 331 317 319 306 307 305 309 305 298 293 284 270 277 279 291 288 302 264 342 329 260 235 223 231 233 226
316 318 324 326 329 324 326 330 333 340 340 326 323 316 305 298 308 314 324 328 327 335 309 308 326 330 300 320 308 292 271 259 251 251 246 249 250 229 295 321 240 252 186 212 211 230 204
314 317 322 321 326 325 321 326 330 332 332 327 315 308 303 287 308 304 332 317 327 319 319 305 329 332 324 315 307 320 316 194 251 256 234 215 215 263 274 277 271 42 26 358 271 214 213
312 316 318 323 325 321 319 322 323 327 326 318 307 296 296 289 279 321 316 320 315 322 313 326 325 327 328 310 309 301 324 241 311 117 57 159 188 186 283 280 32 20 341 334 317 218 122
312 316 320 323 324 317 317 316 320 319 318 306 300 305 292 281 284 307 304 309 312 307 292 305 330 332 335 320 293 317 321 341 270 172 157 144 223 222 267 278 53 353 331 314 208 49 92
310 315 316 319 318 317 316 316 318 321 322 311 300 292 287 280 286 285 290 288 282 292 277 292 321 48 318 347 326 354 281 275 268 28 359 219 248 268 246 309 6 341 341 17 307 307 226
312 311 312 315 317 315 313 316 318 322 320 315 299 299 291 289 281 290 288 277 270 267 278 286 252 300 277 309 330 316 289 292 321 2 15 47 16 27 25 13 309 340 339 343 31 70 108
Wind_Speed_850mb
46 44 44 44 43 43 43 44 46 47 48 49 51 53 54 53 54 54 52 53 54 59 55 60 66 65 46 19 42 38 39 37 31 19 24 31 44 51 49 49 57 59 56 71 72 68 69
46 44 43 43 43 43 44 45 46 47 48 48 50 50 52 52 49 51 53 54 53 51 54 56 51 43 23 29 16 25 18 19 21 29 33 37 43 50 52 49 56 59 60 63 66 71 68
46 43 42 41 40 40 41 43 46 49 51 53 56 59 58 56 61 59 56 58 57 54 42 39 42 32 33 72 24 23 29 26 25 32 42 39 40 48 48 48 65 62 59 57 56 69 59
45 43 41 41 41 42 45 49 53 56 58 59 60 61 61 63 64 62 61 54 52 51 49 40 23 17 30 24 22 37 41 46 36 35 41 40 41 48 55 59 58 47 54 52 57 55 58
47 48 48 47 45 45 47 50 54 57 59 62 64 67 68 70 70 65 59 50 46 40 43 31 4 18 26 21 28 31 31 38 36 39 35 32 36 45 44 40 40 47 46 57 50 53 58
48 50 49 49 49 48 49 52 54 57 61 65 68 70 71 69 71 68 60 44 36 32 22 11 19 20 38 29 11 14 18 25 31 26 37 36 26 33 37 33 41 46 51 54 56 46 55
47 49 51 53 54 53 54 56 58 60 63 66 69 71 74 71 69 55 54 44 29 13 13 33 44 43 52 25 17 22 21 22 30 40 36 43 30 43 48 48 55 52 50 56 55 52 57
46 49 51 55 60 63 62 60 61 62 62 64 68 72 73 71 63 33 34 23 25 32 55 50 89 91 91 70 74 63 34 43 33 40 40 36 48 48 43 49 52 53 53 57 53 53 47
48 49 52 57 60 62 66 67 67 67 67 68 70 72 73 69 47 25 31 23 35 36 28 63 66 54 54 42 53 51 46 49 48 41 44 46 51 49 51 47 49 51 51 49 52 51 56
49 51 52 53 56 60 66 67 71 71 71 70 70 72 79 69 19 33 17 30 31 32 14 38 13 5 11 11 26 34 38 41 41 49 48 43 48 53 51 44 51 47 47 52 52 46 39
53 49 49 51 55 61 67 68 71 70 72 75 73 70 72 43 40 20 31 37 34 20 15 9 15 4 16 24 32 19 35 31 41 42 41 41 56 42 43 51 48 44 38 44 50 46 46
54 50 50 51 55 60 68 71 72 74 73 78 76 73 73 38 33 32 41 36 25 11 18 21 39 40 32 46 30 39 30 37 53 52 46 54 63 48 48 45 49 43 33 57 46 36 37
55 54 50 53 56 61 70 75 75 77 79 81 86 76 47 32 13 32 38 35 16 20 32 44 58 47 42 46 48 52 52 54 43 45 47 45 56 53 49 57 53 37 20 24 27 30 34
54 55 54 55 58 64 74 77 80 81 81 84 90 76 32 18 13 32 37 24 23 24 35 54 53 61 56 57 55 45 35 31 40 56 14 30 40 58 46 40 45 45 39 22 23 29 40
52 55 57 57 61 69 77 77 78 78 81 88 86 54 26 20 11 34 28 18 23 36 47 49 60 46 54 60 61 55 55 49 44 38 12 19 36 31 32 36 35 53 16 21 30 44 30
55 58 60 63 67 72 75 77 78 79 83 78 77 50 18 5 22 33 16 28 35 45 48 42 49 48 53 55 53 55 48 40 37 34 22 14 15 25 40 19 44 40 10 28 25 39 18
56 57 63 64 68 71 74 77 78 73 77 74 45 30 4 14 34 24 19 29 44 54 41 36 41 44 47 41 36 44 53 50 27 21 9 9 11 13 9 11 40 35 21 6 11 34 32
54 58 62 64 67 69 73 75 70 68 72 65 26 16 35 26 30 12 17 36 44 37 32 35 30 35 39 39 29 33 40 44 17 12 20 7 11 16 32 24 42 23 39 39 9 27 33
56 61 64 65 65 65 70 70 66 56 54 58 35 40 10 39 18 21 36 37 37 29 31 30 33 39 24 18 18 14 11 28 37 17 3 4 6 13 21 21 6 8 26 30 23 9 41
59 59 62 67 62 62 65 62 57 49 42 44 20 16 38 39 30 37 36 39 36 33 34 46 38 36 9 40 35 31 19 11 31 13 14 12 6 13 20 27 20 16 39 25 27 18 30
56 61 67 63 52 54 58 53 49 47 38 26 13 18 36 18 31 34 38 40 33 38 36 48 33 30 45 31 46 38 48 44 39 19 8 1 7 24 34 38 41 43 45 41 33 32 30
57 60 68 56 53 50 50 46 47 44 39 19 29 41 32 53 32 38 39 29 43 42 43 37 32 51 43 34 37 48 42 37 37 32 23 4 7 28 37 36 37 48 47 43 38 35 29
57 55 60 58 54 50 47 41 43 40 33 27 29 33 32 29 31 31 31 42 35 41 21 55 42 42 43 37 56 67 66 58 47 42 35 28 17 12 15 20 41 21 49 39 37 40 36
52 50 50 52 57 50 42 38 38 33 28 24 29 32 22 21 27 30 43 40 40 40 39 47 53 16 27 71 71 63 62 54 45 41 34 31 17 6 15 21 10 22 26 34 34 37 25
50 49 48 50 54 49 39 36 33 32 27 25 26 28 22 16 41 39 46 45 49 54 42 50 38 50 59 56 18 21 11 20 14 23 26 20 11 5 7 13 15 30 29 15 13 28 29
50 47 47 46 51 47 37 33 33 32 24 26 23 26 32 18 15 57 55 40 34 33 32 37 61 44 42 8 5 8 7 6 6 5 7 12 13 7 7 11 13 16 35 47 23 13 53
47 46 44 44 48 42 36 35 33 32 30 24 32 25 37 30 53 38 44 38 43 26 20 47 43 46 23 7 6 6 8 11 8 9 8 5 5 7 10 9 6 28 49 46 7 6 21
44 44 42 42 45 38 36 32 36 32 28 31 36 28 35 41 64 67 45 48 51 57 21 47 25 7 9 10 7 8 6 5 7 8 5 5 5 2 5 5 5 46 30 14 18 28 18
44 42 40 43 39 36 34 36 34 29 32 30 40 27 34 44 65 77 74 67 69 65 60 23 14 22 7 5 5 9 8 7 11 5 7 3 7 4 9 6 21 28 25 38 38 39 26
Wind_Direction_850mb
29 28 25 22 20 17 14 10 5 3 359 354 350 347 343 340 336 331 326 320 316 311 309 308 308 309 320 261 258 296 271 282 259 251 227 229 228 233 239 245 241 238 243 242 241 252 258
29 27 23 20 17 14 9 5 2 359 356 352 347 344 341 339 335 330 324 319 311 303 302 303 305 305 293 261 279 254 265 257 238 225 230 230 232 236 255 246 248 253 252 257 250 246 247
29 26 23 19 15 11 7 1 358 355 353 350 347 346 344 342 338 339 334 328 318 309 302 292 292 290 259 254 232 241 254 247 238 238 239 238 241 247 253 255 259 253 254 262 248 241 246
26 24 21 17 13 9 5 1 358 355 353 351 348 345 346 344 343 340 336 330 326 318 310 304 286 238 255 261 271 248 253 252 250 238 238 242 247 251 252 261 266 261 252 245 241 250 243
21 19 18 15 12 8 4 1 358 355 352 349 348 346 345 343 339 336 332 328 319 315 307 313 249 203 265 285 253 258 244 244 246 245 245 242 244 253 254 247 253 246 249 239 251 246 238
17 16 14 12 10 7 3 0 357 354 350 348 346 343 341 340 335 334 334 333 311 306 298 292 261 245 246 255 280 230 239 237 241 242 232 232 239 239 234 237 232 237 242 242 254 244 231
13 13 11 9 7 4 1 359 356 353 350 347 344 341 339 339 334 337 345 3 343 289 223 246 266 237 265 237 241 242 242 236 243 240 230 221 231 234 228 226 246 256 253 253 251 231 240
10 9 7 6 4 3 3 359 355 352 349 346 343 341 339 337 335 338 346 335 337 307 300 270 261 259 264 266 271 259 242 232 231 238 237 233 233 242 246 251 245 237 249 263 268 271 271
5 4 4 4 3 2 0 358 355 351 348 345 343 340 337 333 333 343 326 312 325 323 292 295 268 262 241 243 248 261 241 236 239 241 237 242 240 239 236 244 250 251 248 247 250 259 268
0 1 2 1 359 358 357 356 353 350 346 342 341 340 333 334 339 320 324 327 327 322 283 276 154 190 164 227 241 246 250 229 232 239 257 248 242 244 254 247 237 240 250 256 253 258 251
358 356 356 355 354 355 353 349 347 345 344 340 338 339 332 333 322 332 324 325 321 316 293 26 91 146 254 212 310 263 234 223 234 249 261 263 288 297 265 243 269 289 267 241 262 245 257
353 351 350 351 350 348 347 343 341 339 340 337 332 334 325 334 300 306 319 316 306 250 252 12 11 349 318 292 304 298 227 232 244 271 262 261 275 267 259 258 273 277 288 300 233 249 244
349 348 347 347 346 343 341 340 338 338 336 337 334 334 318 312 293 328 321 317 275 242 312 344 343 333 314 304 309 302 292 288 277 259 243 280 271 251 252 259 258 242 238 244 232 226 241
347 347 345 343 341 338 338 338 338 336 336 339 337 337 331 300 300 322 322 289 260 313 319 340 336 327 312 313 303 304 304 291 311 306 228 222 259 250 258 234 248 269 246 243 211 225 237
346 345 341 338 335 336 337 337 336 338 338 342 342 344 316 264 278 330 310 274 297 350 341 333 323 314 311 311 307 302 286 294 288 290 235 295 277 327 311 317 242 233 206 249 271 240 238
342 342 341 337 334 334 335 335 337 342 343 346 338 336 306 268 309 314 297 269 308 348 332 324 314 318 313 312 308 304 293 298 313 353 23 21 298 286 262 287 263 251 304 208 222 251 198
333 337 337 335 335 334 335 338 340 343 342 346 338 317 57 335 317 274 268 309 332 324 324 328 321 320 322 327 311 299 293 288 288 308 328 341 258 289 53 249 245 242 211 150 295 252 232
332 332 333 333 334 334 336 340 344 346 343 352 325 295 312 331 304 262 322 333 318 320 334 333 339 319 318 329 313 302 277 281 9 335 328 129 278 276 276 193 238 308 218 207 184 247 248
327 329 330 330 332 335 336 338 342 351 349 342 315 300 28 338 305 336 333 312 314 338 321 336 330 312 19 306 304 329 307 307 326 298 325 329 252 316 313 175 151 321 244 245 220 242 266
323 325 328 329 329 335 337 338 345 353 348 340 304 315 332 320 324 348 316 310 316 338 336 332 327 326 292 318 316 307 336 256 232 280 177 274 253 271 282 306 287 306 297 295 221 214 241
320 325 326 327 327 336 337 340 344 349 351 340 291 327 334 309 327 311 296 298 319 336 338 333 317 325 323 315 312 312 322 327 328 101 172 157 290 302 296 297 290 278 276 279 270 199 241
320 323 325 325 328 331 335 338 341 347 355 328 319 343 323 300 313 294 295 352 341 337 337 316 326 313 310 296 301 309 315 309 311 298 285 211 289 311 297 281 280 261 258 253 257 263 204
319 320 326 328 331 328 330 334 338 344 355 335 331 320 317 308 311 313 346 332 336 331 317 319 306 307 305 309 305 298 293 284 270 277 279 291 288 302 264 342 329 260 235 223 231 233 226
316 318 324 326 329 324 326 330 333 340 340 326 323 316 305 298 308 314 324 328 327 335 309 308 326 330 300 320 308 292 271 259 251 251 246 249 250 229 295 321 240 252 186 212 211 230 204
314 317 322 321 326 325 321 326 330 332 332 327 315 308 303 287 308 304 332 317 327 319 319 305 329 332 324 315 307 320 316 194 251 256 234 215 215 263 274 277 271 42 26 358 271 214 213
312 316 318 323 325 321 319 322 323 327 326 318 307 296 296 289 279 321 316 320 315 322 313 326 325 327 328 310 309 301 324 241 311 117 57 159 188 186 283 280 32 20 341 334 317 218 122
312 316 320 323 324 317 317 316 320 319 318 306 300 305 292 281 284 307 304 309 312 307 292 305 330 332 335 320 293 317 321 341 270 172 157 144 223 222 267 278 53 353 331 314 208 49 92
310 315 316 319 318 317 316 316 318 321 322 311 300 292 287 280 286 285 290 288 282 292 277 292 321 48 318 347 326 354 281 275 268 28 359 219 248 268 246 309 6 341 341 17 307 307 226
312 311 312 315 317 315 313 316 318 322 320 315 299 299 291 289 281 290 288 277 270 267 278 286 252 300 277 309 330 316 289 292 321 2 15 47 16 27 25 13 309 340 339 343 31 70 108